[[{"header":{"parameterUnit":"m.s-1","parameterCategory":1,"la1":30.2991,"la2":30.254,"lo1":-89.0895,"lo2":-89.0444,"dy":0.0017,"dx":0.0017,"nx":28,"ny":28,"refTime":"2023-11-10T03:00:00:Z","depth":0,"parameterNumber":2,"parameterNumberName":"U-component_of_WINDS"},"data":[0,0,0,0,0,0,0,0,0,0,0,0,0,0,0,0,0,0,0,0,0,0,0,0,0,0,0,0,0,0,0,0,0,0,0,0,0,0,0,0,0,0,0,0,0,0,0,0,0,0,0,0,0,0,0,0,0,0,-4.6282,-4.6284,0,-4.6404,-4.6405,-4.6407,-4.6305,-4.6301,-4.6297,-4.6293,-4.6421,-4.6429,-4.6436,0,0,0,0,0,0,0,0,0,0,0,0,0,-4.5965,-4.5972,-4.6282,-4.6284,-4.6285,-4.6404,-4.6405,-4.6407,-4.6306,-4.6301,-4.6296,-4.6291,-4.6419,-4.6428,-4.6437,0,0,0,0,0,0,0,0,0,0,0,0,0,-4.6097,-4.5974,-4.6282,-4.6249,-4.6247,-4.6403,-4.6406,-4.6408,-4.6307,-4.6301,-4.6294,-4.6288,-4.6416,-4.6427,-4.6438,-4.6634,0,0,-4.6472,-4.6477,0,0,0,0,0,0,0,0,-4.6089,-4.6109,-4.6252,-4.6251,-4.625,-4.6333,-4.6341,-4.6484,-4.6309,-4.6285,-4.6293,-4.6285,-4.6397,-4.641,-4.6447,-4.664,-4.6646,-4.6473,-4.6479,-4.6484,-4.6487,0,0,0,0,0,0,0,-4.608,-4.6103,-4.633,-4.6254,-4.6253,-4.6229,-4.6241,-4.6367,-4.6376,-4.6286,-4.6279,-4.6295,-4.6396,-4.6436,-4.6449,-4.6647,-4.6472,-4.6482,-4.6489,-4.6493,-4.701,-4.7017,0,0,0,0,0,0,-4.6074,-4.6096,-4.6326,-4.6334,-4.6152,-4.624,-4.6253,-4.6313,-4.6374,-4.6377,-4.63,-4.629,-4.642,-4.6436,-4.6453,-4.6689,-4.6484,-4.6495,-4.6501,-4.7003,-4.7012,-4.7019,0,0,0,0,0,0,-4.6068,-4.6096,-4.6322,-4.6213,-4.624,-4.6252,-4.632,-4.6319,-4.6359,-4.6384,-4.6385,-4.634,-4.6416,-4.6437,-4.659,-4.6692,-4.65,-4.651,-4.6995,-4.7006,-4.7016,-4.7161,0,0,0,0,0,0,-4.6059,-4.6094,-4.6168,-4.6215,-4.6246,-4.6456,-4.6326,-4.6326,-4.6378,-4.6365,-4.6422,-4.6425,-4.6413,-4.6574,-4.6601,-4.6703,-4.6518,-4.6986,-4.7,-4.7012,-4.7147,-4.7175,-4.7199,0,0,0,0,0,-4.6048,-4.6204,-4.6172,-4.6201,-4.6339,-4.6462,-4.648,-4.6461,-4.6386,-4.6462,-4.6478,-4.6423,-4.6676,-4.659,-4.662,-4.6727,-4.6979,-4.6996,-4.7011,-4.7135,-4.7169,-4.7198,0,0,0,0,0,0,-4.617,-4.621,-4.6175,-4.6351,-4.6404,-4.6444,-4.6539,-4.6497,-4.6573,-4.6559,-4.6533,-4.6547,-4.6708,-4.6732,-4.6637,-4.6921,-4.6816,-4.6838,-4.69,-4.6933,-4.6958,-4.695,-4.6527,0,0,0,0,0,-4.6216,-4.6312,-4.6342,-4.6495,-4.6523,-4.6527,-4.658,-4.656,-4.6615,-4.6637,-4.6664,-4.672,-4.6812,-4.6873,-4.6959,-4.7149,-4.7161,-4.7237,-4.7263,-4.7285,-4.7305,-4.741,-4.7445,-4.7072,-4.7071,-4.7071,0,0,-4.6315,-4.6349,-4.6411,-4.652,-4.6559,-4.666,-4.6546,-4.6658,-4.6733,-4.6654,-4.68,-4.6822,-4.6883,-4.7056,-4.7133,-4.7081,-4.7411,-4.7305,-4.7322,-4.7331,-4.743,-4.7465,-4.7497,-4.7082,-4.708,-4.7079,0,0,-4.6547,-4.6581,-4.6713,-4.6754,-4.6814,-4.6815,-4.6847,-4.6894,-4.6906,-4.7051,-4.6995,-4.7084,-4.7242,-4.7289,-4.7333,-4.7583,-4.7537,-4.7611,-4.7748,-4.7851,-4.788,-4.7906,-4.7998,-4.8031,-4.7631,-4.7632,-4.7632,0,-4.6663,-4.6812,-4.6786,-4.6902,-4.6953,-4.6885,-4.7019,-4.706,-4.7146,-4.7183,-4.7122,-4.732,-4.7356,-4.754,-4.7601,-4.7638,-4.7675,-4.7606,-4.7877,-4.7903,-4.7927,-4.8015,-4.8049,-4.764,-4.7639,-4.7638,-4.7638,0,-4.6952,-4.7057,-4.7156,-4.724,-4.7301,-4.7426,-4.742,-4.7485,-4.7461,-4.7469,-4.762,-4.766,-4.7753,-4.7795,-4.7772,-4.7977,-4.7943,-4.7881,-4.7774,-4.7972,-4.8054,-4.8087,-4.7653,-4.765,-4.7647,-4.7645,0,0,-4.7266,-4.7333,-4.7371,-4.7408,-4.7469,-4.755,-4.7672,-4.7762,-4.782,-4.7881,-4.7984,-4.812,-4.8063,-4.8113,-4.8095,-4.8184,-4.8383,-4.8111,-4.8113,-4.8163,-4.8614,-4.8662,-4.8701,-4.8351,-4.8357,-4.8362,-4.8609,0,-4.7503,-4.7714,-4.7695,-4.7896,-4.7994,-4.793,-4.8036,-4.8086,-4.8097,-4.8182,-4.8194,-4.8292,-4.8208,-4.8238,-4.8323,-4.8341,-4.8474,-4.8322,-4.845,-4.8455,-4.844,-4.8743,-4.8795,-4.9026,-4.8641,-4.8646,-4.865,0,-4.7807,-4.7879,-4.809,-4.8137,-4.8177,-4.8273,-4.8355,-4.8437,-4.8492,-4.8494,-4.855,-4.8517,-4.8641,-4.853,-4.8703,-4.8601,-4.8651,-4.8668,-4.8676,-4.869,-4.8567,-4.8768,-4.9099,-4.9135,-4.87,-4.8696,-4.8692,0,-4.8019,-4.8167,-4.8313,-4.8347,-4.8405,-4.8474,-4.8502,-4.8551,-4.8607,-4.8679,-4.8715,-4.8801,-4.8849,-4.8917,-4.8908,-4.8828,-4.9085,-4.8973,-4.9093,-4.9093,-4.9152,-4.9149,-4.9499,-4.918,-4.918,-4.9179,-4.9178,0,-4.8287,-4.8419,-4.8409,-4.8499,-4.8646,-4.8622,-4.8769,-4.8788,-4.8833,-4.8927,-4.8876,-4.8966,-4.8947,-4.9037,-4.9031,-4.9177,-4.9198,-4.9205,-4.9202,-4.9211,-4.9211,-4.9246,-4.9231,-4.9188,-4.9186,-4.9184,-4.9183,0,-4.8549,-4.8547,-4.8702,-4.8744,-4.8758,-4.8865,-4.8901,-4.8987,-4.8993,-4.9113,-4.9139,-4.915,-4.9253,-4.925,-4.9367,-4.9363,-4.9543,-4.9521,-4.9525,-4.9521,-4.9642,-4.9632,-5.003,-5.0082,-4.9726,-4.973,-4.9732,0,-4.8721,-4.8822,-4.8874,-4.8933,-4.8965,-4.9061,-4.9117,-4.9098,-4.916,-4.9231,-4.9309,-4.9407,-4.9485,-4.9653,-4.9672,-4.9762,-4.9743,-4.9876,-4.9757,-4.9763,-4.9749,-4.9744,-4.9755,-4.9901,-4.9905,-4.9908,-4.991,0,-4.9029,-4.9023,-4.9107,-4.9191,-4.926,-4.9325,-4.9385,-4.9436,-4.9423,-4.9495,-4.96,-4.966,-4.978,-4.9879,-4.9965,-4.9995,-4.9953,-4.9947,-4.9981,-4.9992,-4.9992,-4.9997,-4.9592,-4.9939,-4.9936,-4.9934,-4.9933,-4.9932,-4.9254,-4.9341,-4.9392,-4.9487,-4.953,-4.9587,-4.967,-4.9686,-4.9773,-4.9868,-4.9851,-4.9969,-5.0023,-5.0134,-5.0172,-5.0265,-5.0218,-5.0265,-5.0278,-5.0291,-5.0306,-4.9974,-5.028,-5.0279,-5.0278,-5.0278,-5.0277,0,-4.9562,-4.9591,-4.9678,-4.9764,-4.9839,-4.9789,-4.9853,-4.992,-5.0024,-5.0077,-5.0155,-5.0276,-5.0372,-5.0398,-5.0491,-5.056,-5.0543,-5.0586,-5.0582,-5.059,-5.034,-5.0304,-5.0598,-5.0598,-5.0598,-5.0598,-5.0598,-5.0598,-4.9731,-4.9876,-4.9877,-5.0043,-5.0071,-5.0186,-5.0227,-5.028,-5.0323,-5.046,-5.0539,-5.0554,-5.0598,-5.0693,-5.078,-5.0785,-5.0823,-5.0875,-5.0873,-5.064,-5.0607,-5.0577,-5.0543,-5.0882,-5.0883,-5.1115,-5.1117,-5.1119]},{"header":{"parameterUnit":"m.s-1","parameterCategory":1,"la1":30.2991,"la2":30.254,"lo1":-89.0895,"lo2":-89.0444,"dy":0.0017,"dx":0.0017,"nx":28,"ny":28,"refTime":"2023-11-10T03:00:00:Z","depth":0,"parameterNumber":3,"parameterNumberName":"V-component_of_WINDS"},"data":[0,0,0,0,0,0,0,0,0,0,0,0,0,0,0,0,0,0,0,0,0,0,0,0,0,0,0,0,0,0,0,0,0,0,0,0,0,0,0,0,0,0,0,0,0,0,0,0,0,0,0,0,0,0,0,0,0,0,-4.3975,-4.3975,0,-4.3981,-4.3981,-4.3981,-4.3917,-4.3916,-4.3914,-4.3912,-4.3917,-4.3919,-4.3921,0,0,0,0,0,0,0,0,0,0,0,0,0,-4.3906,-4.3908,-4.3975,-4.3975,-4.3975,-4.3981,-4.3981,-4.3981,-4.3918,-4.3916,-4.3913,-4.3911,-4.3917,-4.3919,-4.3921,0,0,0,0,0,0,0,0,0,0,0,0,0,-4.3927,-4.3908,-4.3975,-4.3944,-4.3942,-4.3981,-4.3981,-4.3982,-4.3918,-4.3915,-4.3913,-4.391,-4.3916,-4.3919,-4.3921,-4.3991,0,0,-4.3929,-4.393,0,0,0,0,0,0,0,0,-4.3926,-4.3929,-4.3949,-4.3947,-4.3944,-4.3946,-4.3959,-4.3985,-4.3919,-4.3927,-4.3912,-4.3909,-4.3929,-4.393,-4.3937,-4.3991,-4.3991,-4.393,-4.3931,-4.3932,-4.3933,0,0,0,0,0,0,0,-4.3924,-4.3929,-4.3978,-4.3949,-4.3946,-4.3929,-4.3929,-4.3963,-4.3943,-4.3926,-4.3921,-4.3923,-4.3927,-4.3935,-4.3937,-4.3991,-4.3929,-4.3932,-4.3934,-4.3935,-4.41,-4.4103,0,0,0,0,0,0,-4.3927,-4.3928,-4.3977,-4.3978,-4.3928,-4.3933,-4.3933,-4.3948,-4.3942,-4.3939,-4.3925,-4.392,-4.3932,-4.3934,-4.3937,-4.4017,-4.3932,-4.3935,-4.3936,-4.4098,-4.4101,-4.4104,0,0,0,0,0,0,-4.3926,-4.3932,-4.3977,-4.3952,-4.3956,-4.3937,-4.3954,-4.3949,-4.3957,-4.3942,-4.3937,-4.3937,-4.393,-4.3933,-4.3977,-4.4016,-4.3936,-4.3938,-4.4094,-4.4099,-4.4103,-4.4178,0,0,0,0,0,0,-4.3924,-4.3932,-4.3959,-4.3953,-4.3958,-4.4019,-4.3957,-4.3951,-4.3962,-4.3955,-4.3952,-4.3949,-4.3928,-4.3974,-4.398,-4.4018,-4.3941,-4.4091,-4.4096,-4.4101,-4.4172,-4.4184,-4.4194,0,0,0,0,0,-4.3922,-4.398,-4.3961,-4.3967,-4.3991,-4.4021,-4.4024,-4.3999,-4.3965,-4.3992,-4.3981,-4.3949,-4.4011,-4.3979,-4.3985,-4.4025,-4.4088,-4.4095,-4.4101,-4.4166,-4.4181,-4.4194,0,0,0,0,0,0,-4.3991,-4.3979,-4.3957,-4.4015,-4.4019,-4.401,-4.4042,-4.4016,-4.403,-4.4023,-4.3991,-4.3991,-4.404,-4.4037,-4.4001,-4.4091,-4.4044,-4.4052,-4.4091,-4.4105,-4.4116,-4.4116,-4.3943,0,0,0,0,0,-4.4013,-4.4039,-4.4026,-4.4078,-4.4082,-4.4062,-4.4074,-4.4055,-4.4058,-4.4059,-4.4053,-4.4057,-4.4077,-4.4091,-4.4109,-4.4171,-4.4169,-4.4201,-4.4213,-4.4222,-4.4229,-4.426,-4.4274,-4.4125,-4.4125,-4.4125,0,0,-4.4058,-4.4055,-4.4073,-4.4092,-4.4093,-4.412,-4.4064,-4.4095,-4.4114,-4.4064,-4.4105,-4.4101,-4.4103,-4.4156,-4.4179,-4.4155,-4.427,-4.423,-4.4238,-4.4239,-4.4268,-4.4283,-4.4295,-4.4129,-4.4128,-4.4128,0,0,-4.4155,-4.4155,-4.4198,-4.42,-4.4203,-4.4189,-4.42,-4.4194,-4.4189,-4.423,-4.4193,-4.4215,-4.4251,-4.4254,-4.426,-4.4357,-4.4327,-4.4364,-4.4423,-4.4454,-4.4466,-4.4476,-4.451,-4.4522,-4.4371,-4.4371,-4.4371,0,-4.4211,-4.425,-4.4223,-4.4256,-4.4265,-4.4221,-4.4264,-4.4267,-4.4276,-4.4283,-4.4256,-4.4299,-4.4298,-4.4351,-4.4374,-4.4381,-4.4391,-4.4364,-4.4466,-4.4476,-4.4486,-4.4517,-4.453,-4.4376,-4.4375,-4.4375,-4.4374,0,-4.4318,-4.4346,-4.438,-4.4389,-4.4402,-4.444,-4.4418,-4.4434,-4.4414,-4.4402,-4.4444,-4.4441,-4.4457,-4.4468,-4.4449,-4.4518,-4.4503,-4.4472,-4.4423,-4.4505,-4.4534,-4.4546,-4.4382,-4.438,-4.4379,-4.4378,0,0,-4.4458,-4.4451,-4.4464,-4.4467,-4.4467,-4.4487,-4.4523,-4.4539,-4.4553,-4.456,-4.4588,-4.462,-4.459,-4.4598,-4.4578,-4.4605,-4.4681,-4.457,-4.457,-4.459,-4.4756,-4.4779,-4.4794,-4.4661,-4.4664,-4.4665,-4.4756,0,-4.4551,-4.4611,-4.4587,-4.4649,-4.4674,-4.4632,-4.4663,-4.4666,-4.4656,-4.4676,-4.4665,-4.4687,-4.4648,-4.4651,-4.4677,-4.4666,-4.4714,-4.466,-4.4686,-4.4688,-4.4686,-4.4809,-4.4834,-4.4919,-4.4767,-4.4769,-4.477,0,-4.4667,-4.4679,-4.4744,-4.4738,-4.4747,-4.4775,-4.4787,-4.4807,-4.4809,-4.48,-4.4808,-4.4781,-4.4815,-4.4768,-4.4813,-4.4777,-4.4786,-4.4783,-4.4785,-4.4786,-4.4733,-4.4812,-4.4946,-4.4958,-4.4788,-4.4787,-4.4786,0,-4.4761,-4.4793,-4.4836,-4.484,-4.4835,-4.4855,-4.4854,-4.4853,-4.4864,-4.4874,-4.4881,-4.4895,-4.4903,-4.4915,-4.4893,-4.486,-4.4941,-4.4892,-4.4934,-4.4934,-4.4952,-4.4951,-4.5088,-4.496,-4.496,-4.496,-4.4959,0,-4.4867,-4.4908,-4.4878,-4.4904,-4.4948,-4.492,-4.4965,-4.4959,-4.4958,-4.4982,-4.4947,-4.497,-4.494,-4.496,-4.4943,-4.4983,-4.4987,-4.498,-4.4975,-4.4982,-4.4983,-4.4988,-4.4981,-4.4963,-4.4962,-4.4962,-4.4961,0,-4.4979,-4.4961,-4.5004,-4.4995,-4.4994,-4.5027,-4.5019,-4.5043,-4.5031,-4.5061,-4.5066,-4.5048,-4.5069,-4.5049,-4.5069,-4.5058,-4.511,-4.5097,-4.511,-4.5106,-4.5148,-4.5144,-4.5292,-4.531,-4.5172,-4.5173,-4.5174,0,-4.5047,-4.5078,-4.5072,-4.5085,-4.5086,-4.5108,-4.5119,-4.5093,-4.5105,-4.5109,-4.5132,-4.515,-4.5164,-4.52,-4.5188,-4.5203,-4.5189,-4.524,-4.5191,-4.5198,-4.5189,-4.5187,-4.5189,-4.525,-4.5251,-4.5253,-4.5254,0,-4.517,-4.5159,-4.5176,-4.519,-4.5203,-4.5213,-4.522,-4.5232,-4.5205,-4.5221,-4.5242,-4.5253,-4.5273,-4.5292,-4.5303,-4.5301,-4.5273,-4.527,-4.528,-4.5288,-4.5293,-4.529,-4.5136,-4.5266,-4.5265,-4.5264,-4.5263,-4.5263,-4.5261,-4.5286,-4.5286,-4.5305,-4.5307,-4.5314,-4.5336,-4.5326,-4.5344,-4.5358,-4.5342,-4.5368,-4.5368,-4.5381,-4.5382,-4.5402,-4.538,-4.5396,-4.5399,-4.5403,-4.5409,-4.5291,-4.5404,-4.5404,-4.5403,-4.5403,-4.5403,0,-4.5381,-4.5379,-4.5397,-4.5407,-4.5423,-4.5395,-4.5401,-4.5415,-4.5439,-4.5442,-4.5455,-4.548,-4.5497,-4.5487,-4.5502,-4.552,-4.5507,-4.5524,-4.5522,-4.5522,-4.5428,-4.5417,-4.5534,-4.5534,-4.5534,-4.5534,-4.5534,-4.5534,-4.5445,-4.5485,-4.5474,-4.5514,-4.5511,-4.5537,-4.5542,-4.5548,-4.555,-4.5579,-4.5593,-4.5586,-4.5584,-4.5598,-4.5613,-4.5609,-4.5616,-4.5638,-4.563,-4.5542,-4.5529,-4.5516,-4.5506,-4.564,-4.564,-4.5722,-4.5723,-4.5723]}]]